TimeCST,TemperatureF,Dew PointF,Humidity,Sea Level PressureIn,VisibilityMPH,Wind Direction,Wind SpeedMPH,Gust SpeedMPH,PrecipitationIn,Events,Conditions,WindDirDegrees,DateUTC
12:53 AM,37.9,27.0,65,30.13,10.0,Calm,Calm,-,N/A,,Overcast,0,2012-12-06 06:53:00
1:53 AM,37.9,28.9,70,30.11,10.0,Calm,Calm,-,N/A,,Overcast,0,2012-12-06 07:53:00
2:53 AM,37.0,30.0,76,30.09,10.0,Variable,4.6,-,N/A,,Mostly Cloudy,0,2012-12-06 08:53:00
3:53 AM,37.9,30.0,73,30.06,10.0,Variable,4.6,-,N/A,,Overcast,0,2012-12-06 09:53:00
4:53 AM,39.0,30.9,73,30.01,10.0,Variable,6.9,-,N/A,,Overcast,0,2012-12-06 10:53:00
5:53 AM,39.9,30.9,70,30.02,10.0,SSW,10.4,26.5,N/A,,Overcast,200,2012-12-06 11:53:00
6:53 AM,39.9,30.9,70,30.02,10.0,SSW,6.9,16.1,N/A,,Overcast,200,2012-12-06 12:53:00
7:53 AM,39.9,32.0,73,30.00,10.0,South,8.1,-,N/A,,Overcast,190,2012-12-06 13:53:00
8:53 AM,41.0,32.0,70,29.98,10.0,SSW,11.5,16.1,N/A,,Overcast,200,2012-12-06 14:53:00
9:53 AM,44.1,33.1,65,29.98,10.0,SSW,10.4,-,N/A,,Overcast,210,2012-12-06 15:53:00
10:53 AM,44.1,33.1,65,29.95,10.0,South,8.1,-,N/A,,Overcast,190,2012-12-06 16:53:00
11:53 AM,46.0,34.0,63,29.92,10.0,SSW,5.8,-,N/A,,Overcast,200,2012-12-06 17:53:00
12:53 PM,46.9,35.1,63,29.88,10.0,SW,9.2,-,N/A,,Overcast,220,2012-12-06 18:53:00
1:53 PM,48.0,36.0,63,29.88,10.0,WSW,6.9,-,N/A,,Overcast,240,2012-12-06 19:53:00
2:53 PM,48.0,36.0,63,29.88,10.0,SSW,10.4,-,N/A,,Overcast,210,2012-12-06 20:53:00
3:53 PM,46.9,37.0,68,29.89,10.0,SW,8.1,-,N/A,,Mostly Cloudy,220,2012-12-06 21:53:00
4:53 PM,45.0,36.0,71,29.89,10.0,SW,4.6,-,N/A,,Clear,230,2012-12-06 22:53:00
5:53 PM,43.0,36.0,76,29.90,10.0,SW,4.6,-,N/A,,Scattered Clouds,230,2012-12-06 23:53:00
6:53 PM,43.0,37.0,80,29.92,10.0,Variable,6.9,-,N/A,,Clear,0,2012-12-07 00:53:00
7:53 PM,42.1,35.1,76,29.94,10.0,Calm,Calm,-,N/A,,Clear,0,2012-12-07 01:53:00
8:53 PM,42.1,34.0,73,29.94,10.0,Calm,Calm,-,N/A,,Clear,0,2012-12-07 02:53:00
9:53 PM,39.9,33.1,77,29.95,10.0,Calm,Calm,-,N/A,,Clear,0,2012-12-07 03:53:00
10:51 PM,35.6,32.0,87,29.95,2.5,Calm,Calm,-,N/A,,Clear,0,2012-12-07 04:51:00
10:53 PM,35.1,30.9,85,29.97,3.0,Calm,Calm,-,N/A,,Clear,0,2012-12-07 04:53:00
11:00 PM,35.6,30.2,81,29.94,1.8,Calm,Calm,-,N/A,,Clear,0,2012-12-07 05:00:00
11:06 PM,35.6,30.2,81,29.94,3.0,Calm,Calm,-,N/A,,Clear,0,2012-12-07 05:06:00
11:53 PM,35.1,32.0,89,29.97,10.0,SSW,3.5,-,N/A,,Partly Cloudy,200,2012-12-07 05:53:00